When you browse on this site, cookies collect data to enhance your experience and personalize the content and advertising you see.
Visit our Privacy Policy to learn more. By continuing to use the site, you agree to this use of cookies and data.
  • Em Portugal
  • Lista de países
  • Para 7 dias
  • Temperatura da água
  • Mapa do tempo
  • Widgets de tempo
  • user-avatar
    Iniciar Sessão

    Previsão horária em Mazari Sharif

    Hoje, 16 Outubro, Quarta-feira

    Tempo Temperatura Precipitação Vento Pressão Humidade
    00:00 +7°C° 0 mm 0 m/s 656 mmHg 64%
    01:00 +7°C° 0 mm 0 m/s 656 mmHg 65%
    02:00 +6°C° 0 mm 0 m/s 656 mmHg 65%
    03:00 +6°C° 0 mm 0 m/s 655 mmHg 66%
    04:00 +6°C° 0 mm 0 m/s 655 mmHg 68%
    05:00 +8°C° 0 mm 0 m/s 656 mmHg 59%
    06:00 +10°C° 0 mm 0 m/s 657 mmHg 50%
    07:00 +12°C° 0 mm 0 m/s 658 mmHg 42%
    08:00 +14°C° 0 mm 1 m/s 658 mmHg 38%
    09:00 +16°C° 0 mm 1 m/s 658 mmHg 34%
    10:00 +18°C° 0 mm 2 m/s 659 mmHg 30%
    11:00 +19°C° 0 mm 2 m/s 658 mmHg 28%
    12:00 +19°C° 0 mm 3 m/s 658 mmHg 27%
    13:00 +20°C° 0 mm 3 m/s 658 mmHg 26%
    14:00 +20°C° 0 mm 3 m/s 658 mmHg 26%
    15:00 +19°C° 0 mm 2 m/s 657 mmHg 27%
    16:00 +18°C° 0 mm 2 m/s 657 mmHg 28%
    17:00 +16°C° 0 mm 2 m/s 657 mmHg 34%
    18:00 +13°C° 0 mm 1 m/s 656 mmHg 40%
    19:00 +11°C° 0 mm 1 m/s 656 mmHg 46%
    20:00 +11°C° 0 mm 1 m/s 656 mmHg 47%
    21:00 +11°C° 0 mm 1 m/s 656 mmHg 47%
    22:00 +10°C° 0 mm 1 m/s 656 mmHg 48%
    23:00 +10°C° 0 mm 1 m/s 656 mmHg 48%

    Amanhã, 17 Outubro, Quinta-feira

    Tempo Temperatura Precipitação Vento Pressão Humidade
    00:00 +10°C° 0 mm 1 m/s 656 mmHg 47%
    01:00 +10°C° 0 mm 1 m/s 656 mmHg 46%
    02:00 +10°C° 0 mm 1 m/s 656 mmHg 47%
    03:00 +9°C° 0 mm 1 m/s 656 mmHg 48%
    04:00 +9°C° 0 mm 1 m/s 656 mmHg 48%
    05:00 +11°C° 0 mm 1 m/s 657 mmHg 43%
    06:00 +12°C° 0 mm 1 m/s 658 mmHg 38%
    07:00 +14°C° 0 mm 1 m/s 659 mmHg 33%
    08:00 +15°C° 0 mm 1 m/s 659 mmHg 30%
    09:00 +17°C° 0 mm 2 m/s 659 mmHg 26%
    10:00 +18°C° 0 mm 2 m/s 660 mmHg 23%
    11:00 +19°C° 0 mm 2 m/s 660 mmHg 22%
    12:00 +19°C° 0 mm 3 m/s 659 mmHg 21%
    13:00 +20°C° 0 mm 3 m/s 659 mmHg 20%
    14:00 +19°C° 0 mm 3 m/s 659 mmHg 21%
    15:00 +19°C° 0 mm 3 m/s 659 mmHg 21%
    16:00 +19°C° 0 mm 2 m/s 659 mmHg 22%
    17:00 +17°C° 0 mm 2 m/s 659 mmHg 25%
    18:00 +15°C° 0 mm 2 m/s 659 mmHg 28%
    19:00 +13°C° 0 mm 1 m/s 659 mmHg 31%
    20:00 +12°C° 0 mm 1 m/s 658 mmHg 33%
    21:00 +12°C° 0 mm 2 m/s 658 mmHg 35%
    22:00 +10°C° 0 mm 2 m/s 658 mmHg 36%
    23:00 +10°C° 0 mm 2 m/s 658 mmHg 39%

    Depois de amanhã, 18 Outubro, Sexta-feira

    Tempo Temperatura Precipitação Vento Pressão Humidade
    00:00 +10°C° 0 mm 1 m/s 657 mmHg 41%
    01:00 +10°C° 0 mm 1 m/s 657 mmHg 43%
    02:00 +9°C° 0 mm 1 m/s 657 mmHg 44%
    03:00 +9°C° 0 mm 1 m/s 657 mmHg 45%
    04:00 +9°C° 0 mm 1 m/s 657 mmHg 45%
    05:00 +10°C° 0 mm 1 m/s 657 mmHg 40%
    06:00 +12°C° 0 mm 1 m/s 658 mmHg 35%
    07:00 +13°C° 0 mm 1 m/s 659 mmHg 30%
    08:00 +15°C° 0 mm 1 m/s 659 mmHg 27%
    09:00 +18°C° 0 mm 1 m/s 660 mmHg 24%
    10:00 +19°C° 0 mm 1 m/s 660 mmHg 21%
    11:00 +19°C° 0 mm 2 m/s 660 mmHg 21%
    12:00 +20°C° 0 mm 3 m/s 659 mmHg 20%
    13:00 +20°C° 0 mm 3 m/s 659 mmHg 19%
    14:00 +19°C° 0 mm 3 m/s 659 mmHg 20%
    15:00 +19°C° 0 mm 3 m/s 658 mmHg 22%
    16:00 +18°C° 0 mm 2 m/s 658 mmHg 23%
    17:00 +16°C° 0 mm 2 m/s 657 mmHg 27%
    18:00 +13°C° 0 mm 1 m/s 657 mmHg 32%
    19:00 +11°C° 0 mm 1 m/s 656 mmHg 36%
    20:00 +10°C° 0 mm 1 m/s 656 mmHg 39%
    21:00 +10°C° 0 mm 1 m/s 655 mmHg 42%
    22:00 +9°C° 0 mm 1 m/s 655 mmHg 45%
    23:00 +8°C° 0 mm 0 m/s 655 mmHg 48%

    19 Outubro, Sábado

    Tempo Temperatura Precipitação Vento Pressão Humidade
    00:00 +8°C° 0 mm 0 m/s 655 mmHg 51%
    01:00 +7°C° 0 mm 0 m/s 654 mmHg 54%
    02:00 +7°C° 0 mm 0 m/s 654 mmHg 56%
    03:00 +7°C° 0 mm 0 m/s 654 mmHg 57%
    04:00 +6°C° 0 mm 0 m/s 654 mmHg 58%
    05:00 +8°C° 0 mm 0 m/s 655 mmHg 49%
    06:00 +10°C° 0 mm 0 m/s 656 mmHg 40%
    07:00 +12°C° 0 mm 0 m/s 657 mmHg 30%
    08:00 +15°C° 0 mm 1 m/s 657 mmHg 27%
    09:00 +19°C° 0 mm 1 m/s 658 mmHg 23%
    10:00 +21°C° 0 mm 1 m/s 658 mmHg 20%
    11:00 +21°C° 0 mm 2 m/s 658 mmHg 19%
    12:00 +21°C° 0 mm 3 m/s 658 mmHg 18%
    13:00 +22°C° 0 mm 4 m/s 658 mmHg 17%
    14:00 +21°C° 0 mm 3 m/s 657 mmHg 18%
    15:00 +21°C° 0 mm 3 m/s 657 mmHg 19%
    16:00 +20°C° 0 mm 2 m/s 657 mmHg 21%
    17:00 +17°C° 0 mm 2 m/s 656 mmHg 27%
    18:00 +14°C° 0 mm 1 m/s 656 mmHg 34%
    19:00 +11°C° 0 mm 1 m/s 655 mmHg 41%
    20:00 +11°C° 0 mm 1 m/s 655 mmHg 41%
    21:00 +11°C° 0 mm 1 m/s 656 mmHg 40%
    22:00 +11°C° 0 mm 1 m/s 656 mmHg 40%
    23:00 +10°C° 0 mm 1 m/s 655 mmHg 44%

    20 Outubro, Domingo

    Tempo Temperatura Precipitação Vento Pressão Humidade
    00:00 +10°C° 0 mm 1 m/s 655 mmHg 48%
    01:00 +8°C° 0 mm 0 m/s 655 mmHg 53%
    02:00 +8°C° 0 mm 0 m/s 655 mmHg 53%
    03:00 +7°C° 0 mm 0 m/s 655 mmHg 54%
    04:00 +7°C° 0 mm 0 m/s 655 mmHg 55%
    05:00 +9°C° 0 mm 0 m/s 656 mmHg 46%
    06:00 +11°C° 0 mm 0 m/s 657 mmHg 37%
    07:00 +12°C° 0 mm 0 m/s 658 mmHg 28%
    08:00 +16°C° 0 mm 1 m/s 658 mmHg 25%
    09:00 +19°C° 0 mm 1 m/s 659 mmHg 22%
    10:00 +20°C° 0 mm 2 m/s 659 mmHg 18%
    11:00 +21°C° 0 mm 2 m/s 659 mmHg 17%
    12:00 +21°C° 0 mm 3 m/s 659 mmHg 16%
    13:00 +22°C° 0 mm 3 m/s 659 mmHg 15%
    14:00 +21°C° 0 mm 3 m/s 659 mmHg 16%
    15:00 +20°C° 0 mm 3 m/s 658 mmHg 16%
    16:00 +20°C° 0 mm 2 m/s 658 mmHg 17%
    17:00 +17°C° 0 mm 2 m/s 658 mmHg 21%
    18:00 +14°C° 0 mm 1 m/s 657 mmHg 26%
    19:00 +10°C° 0 mm 0 m/s 657 mmHg 30%
    20:00 +11°C° 0 mm 1 m/s 657 mmHg 31%
    21:00 +11°C° 0 mm 1 m/s 657 mmHg 32%
    22:00 +11°C° 0 mm 1 m/s 657 mmHg 32%
    23:00 +10°C° 0 mm 1 m/s 656 mmHg 36%

    21 Outubro, Segunda-feira

    Tempo Temperatura Precipitação Vento Pressão Humidade
    00:00 +10°C° 0 mm 1 m/s 656 mmHg 39%
    01:00 +8°C° 0 mm 0 m/s 656 mmHg 42%
    02:00 +8°C° 0 mm 0 m/s 656 mmHg 45%
    03:00 +8°C° 0 mm 0 m/s 656 mmHg 47%
    04:00 +7°C° 0 mm 0 m/s 656 mmHg 50%
    05:00 +9°C° 0 mm 0 m/s 657 mmHg 42%
    06:00 +11°C° 0 mm 0 m/s 657 mmHg 33%
    07:00 +12°C° 0 mm 0 m/s 658 mmHg 25%
    08:00 +14°C° 0 mm 0 m/s 659 mmHg 22%
    09:00 +18°C° 0 mm 1 m/s 659 mmHg 19%
    10:00 +20°C° 0 mm 2 m/s 660 mmHg 16%
    11:00 +20°C° 0 mm 2 m/s 660 mmHg 16%
    12:00 +21°C° 0 mm 3 m/s 659 mmHg 15%
    13:00 +21°C° 0 mm 4 m/s 659 mmHg 15%
    14:00 +20°C° 0 mm 3 m/s 659 mmHg 15%
    15:00 +20°C° 0 mm 3 m/s 659 mmHg 16%
    16:00 +19°C° 0 mm 2 m/s 658 mmHg 16%
    17:00 +17°C° 0 mm 2 m/s 658 mmHg 18%
    18:00 +16°C° 0 mm 1 m/s 658 mmHg 19%
    19:00 +14°C° 0 mm 0 m/s 658 mmHg 21%
    20:00 +13°C° 0 mm 0 m/s 657 mmHg 22%
    21:00 +12°C° 0 mm 0 m/s 657 mmHg 23%
    22:00 +12°C° 0 mm 1 m/s 657 mmHg 25%
    23:00 +11°C° 0 mm 0 m/s 657 mmHg 25%
    Mostrar mais